Regional Weather Roundup
Issued by NWS

Home | Current Version | Previous Version | Graphics & Text | Print | Product List | Glossary On
Versions: 1 2 3 4 5 6 7 8 9 10 11 12 13 14 15 16 17 18 19 20 21 22 23 24 25 26 27 28 29 30 31 32 33 34 35 36 37 38 39 40 41 42 43 44 45 46 47 48 49 50
000
ASUS43 KBIS 260410
RWRND

NORTH DAKOTA REGIONAL WEATHER ROUNDUP
NATIONAL WEATHER SERVICE BISMARCK ND
1100 PM CDT FRI JUL 25 2014

NOTE: "FAIR" INDICATES FEW OR NO CLOUDS BELOW 12,000 FEET WITH NO
SIGNIFICANT WEATHER AND/OR OBSTRUCTIONS TO VISIBILITY.


NDZ001>003-009>011-017-260500-
NORTHWEST NORTH DAKOTA

CITY           SKY/WX    TMP DP  RH WIND       PRES   REMARKS
WILLISTON      CLEAR     64  51  62 N21G26    29.82R
MINOT          CLEAR     67  56  67 CALM      29.77R
MINOT AFB      CLEAR     64  60  87 S9        29.76R
$$

NDZ018>021-031>035-040>046-260500-
SOUTHWEST NORTH DAKOTA

CITY           SKY/WX    TMP DP  RH WIND       PRES   REMARKS
BISMARCK       CLEAR     60  53  77 S7        29.80S
DICKINSON      CLEAR     65  53  65 W12       29.83R
GARRISON         N/A     64  59  83 SE5       29.78R
HETTINGER ARPT CLEAR     60  50  69 CALM      29.87R
$$

NDZ004>008-012>016-024-026-027-054-260500-
NORTHEAST NORTH DAKOTA

CITY           SKY/WX    TMP DP  RH WIND       PRES   REMARKS
GRAND FORKS    CLEAR     62  58  86 SW5       29.77S
GRND FRKS AFB  CLEAR     61  61  99 SW6       29.79S
DEVILS LAKE    CLEAR     66  55  68 S7        29.78S
$$

NDZ022-023-025-028>030-036>039-047>053-260500-
SOUTHEAST NORTH DAKOTA

CITY           SKY/WX    TMP DP  RH WIND       PRES   REMARKS
FARGO          CLEAR     64  57  78 CALM      29.81R
JAMESTOWN      CLEAR     64  56  75 CALM      29.82R
$$




USA.gov is the U.S. government's official web portal to all federal, state and local government web resources and services.